Regional Weather Roundup
Issued by NWS

Home | Current Version | Previous Version | Graphics & Text | Print | Product List | Glossary On
Versions: 1 2 3 4 5 6 7 8 9 10 11 12 13 14 15 16 17 18 19 20 21 22 23 24 25 26 27 28 29 30 31 32 33 34 35 36 37 38 39 40 41 42 43 44 45 46 47 48 49 50
000
ASUS43 KDMX 061707
RWRIA

WEATHER ROUNDUP FOR IOWA
NATIONAL WEATHER SERVICE DES MOINES IA
1200 PM CDT MON JUL 06 2015

NOTE: "FAIR" INDICATES FEW OR NO CLOUDS BELOW 12,000 FEET WITH NO
SIGNIFICANT WEATHER AND/OR OBSTRUCTIONS TO VISIBILITY.

* - THESE STATIONS ARE NOT NWS STATIONS...THUS NOT UNDER NWS
QUALITY CONTROL.  THEY ALSO DO NOT REPORT WEATHER SUCH
AS PRECIPITATION OR FOG.

IAZ001>003-012>014-020>022-031>034-043>046-061800-
   NORTHWEST IOWA

CITY           SKY/WX    TMP DP  RH WIND       PRES   REMARKS
CARROLL *      CLOUDY    73  72  94 VRB6      29.89R
CHEROKEE *     RAIN      72  72 100 N9        29.90S
DENISON *      MOSUNNY   73  72  94 W6        29.89S
LE MARS *      CLOUDY    70  68  94 N17       29.93R FOG
ORANGE CITY *  DRIZZLE   66  64  94 N10G18    29.94R
SHELDON *      CLOUDY    70  68  94 N17G25    29.93R
SIOUX CITY     LGT RAIN  74  69  85 N13       29.91R
SPENCER        LGT RAIN  70  67  90 N22G29    29.91R FOG
STORM LAKE *   CLOUDY    73  70  88 SW9       29.91S
$$

IAZ055>058-069>071-079>083-090>094-061800-
   SOUTHWEST IOWA

CITY           SKY/WX    TMP DP  RH WIND       PRES   REMARKS
ATLANTIC *     PTSUNNY   75  72  88 S5        29.91R
AUDUBON *      HVY RAIN  73  70  88 NW5       29.93R
CLARINDA *     CLOUDY    79  75  89 CALM      29.90S HX  82
COUNCIL BLFS * CLOUDY    73  72  94 S6        29.91S
CRESTON *      LGT RAIN  70  68  94 NW5G13    29.91F
HARLAN  *      CLOUDY    73  73 100 SW6       29.94R
LAMONI         CLOUDY    80  73  79 SW9       29.91R HX  84
RED OAK *      PTSUNNY   77  73  88 NE6       29.90R
SHENANDOAH *   MOSUNNY   79  75  89 NE6       29.89R HX  82
$$

IAZ047>049-059>061-072>074-084-061800-
   CENTRAL IOWA

CITY           SKY/WX    TMP DP  RH WIND       PRES   REMARKS
AMES           CLOUDY    75  72  90 S9        29.88R
ANKENY *       DRIZZLE   75  73  94 SW7G13    29.90R
CHARITON *     SUNNY     79  73  83 SW8       29.90S HX  82
DES MOINES     LGT RAIN  77  73  87 SW10      29.90R FOG
GRINNELL*      CLOUDY    75  72  88 S9        29.88F
KNOXVILLE *    SUNNY     77  72  83 S10       29.87S
MARSHALLTOWN   CLOUDY    75  71  87 S12       29.86F
PELLA *        LGT RAIN  77  75  94 SE8       29.89S
PERRY *        CLOUDY    75  72  88 S12       29.87F
$$

IAZ004>006-015-016-023>025-035-036-061800-
   NORTH CENTRAL IOWA

CITY           SKY/WX    TMP DP  RH WIND       PRES   REMARKS
ALGONA *       MOSUNNY   75  70  83 SW12      29.87F
CLARION *      CLOUDY    77  72  83 SW12      29.86S
ESTHERVILLE    LGT RAIN  68  66  93 N22G31    29.89S FOG
FORT DODGE *   CLOUDY    77  72  83 SW9       29.88S
MASON CITY     CLOUDY    76  71  85 SW10      29.86S
FOREST CITY *  MOSUNNY   75  72  88 W8        29.86S
IOWA FALLS *   PTSUNNY   75  70  83 S13G18    29.88R
$$

IAZ007>011-017>019-026>030-037>042-050>054-066-061800-
   NORTHEAST IOWA

CITY           SKY/WX    TMP DP  RH WIND       PRES   REMARKS
CEDAR RAPIDS   CLOUDY    73  73 100 S14       29.88S
CHARLES CITY * MOSUNNY   75  73  94 SW10      29.85R
CLINTON *      CLOUDY    73  70  88 CALM      29.94F
DECORAH *        N/A    N/A N/A N/A MISG        N/A
DUBUQUE        LGT RAIN  71  70  96 SE10      29.88F FOG
MONTICELLO *   CLOUDY    73  73 100 SE12      29.88R FOG
OELWEIN *        N/A    N/A N/A N/A MISG        N/A
WATERLOO       CLOUDY    73  70  90 S7        29.84R
$$

IAZ064-065-067-068-078-061800-
   EAST CENTRAL IOWA

CITY           SKY/WX    TMP DP  RH WIND       PRES   REMARKS
DAVENPORT      CLOUDY    75  72  90 E8        29.92F
IOWA CITY      HVY RAIN  73  72  96 SW8       29.92R FOG
MT. PLEASANT * CLOUDY    81  70  69 S7        29.93S HX  84
MUSCATINE *    SUNNY     77  73  88 SE6       29.91F
QUAD CITIES    CLOUDY    78  69  73 S6        29.92F HX  80
$$

IAZ062-063-075>077-085>089-095>099-061800-
   SOUTHEAST IOWA

CITY           SKY/WX    TMP DP  RH WIND       PRES   REMARKS
BURLINGTON     CLOUDY    79  74  84 S8        29.93F HX  82
FAIRFIELD *    PTSUNNY   77  70  78 S9        29.91F
FORT MADISON * MOSUNNY   79  73  83 S9        29.93F HX  82
KEOKUK *       MOSUNNY   81  73  78 S12       29.92F HX  85
OSKALOOSA *    PTSUNNY   77  73  88 S10       29.90S
CENTERVILLE *  SUNNY     81  73  78 SW9       29.93R HX  85
OTTUMWA        CLOUDY    77  72  84 S7        29.88F
WASHINGTON *   MOSUNNY   77  73  88 S7        29.92S
$$

ABBREVIATIONS USED IN REMARKS
   TC - TEMPERATURES IN CELSIUS
  WCI - WIND CHILL INDEX
   HX - HEAT INDEX
  VSB - VISIBILITY
$$




USA.gov is the U.S. government's official web portal to all federal, state and local government web resources and services.